Miscellaneous Local Product
Issued by NWS North Platte, NE

Home | Current Version | Previous Version | Graphics & Text | Print | Product List | Glossary On
Versions: 1 2 3 4 5 6 7 8 9 10 11 12 13 14 15 16 17 18 19 20 21 22 23 24 25 26 27 28 29 30 31 32 33 34 35 36 37 38 39 40 41 42 43 44 45 46 47 48 49 50
000
AXUS43 KLBF 252210
MISLBF


WESTERN AND NORTH CENTRAL NEBRASKA HOURLY WEATHER ROUNDUP
NATIONAL WEATHER SERVICE NORTH PLATTE NE
400 PM CST TUE NOV 25 2014

***STATIONS NOT REPORTING VARIABLES SUCH AS SKY/WEATHER OR
PRESSURE ARE PROVIDED BY THE NEBRASKA DEPARTMENT OF
ROADS...RAWS...AND APRS NETWORKS...AND ARE NOT UNDER
NATIONAL WEATHER SERVICE QUALITY CONTROL***

...OBSERVATIONS IN AND NEAR THE EASTERN PANHANDLE OF NEBRASKA...

CITY           SKY/WX    TMP DP  RH WIND       PRES   REMARKS
PINE RIDGE     CLOUDY    37  31  78 W9        29.81R WCI  30
CHADRON        CLOUDY    50  32  50 W20       29.82R
ALLIANCE       CLOUDY    42  27  55 NW24G30   29.82R
SIDNEY         CLOUDY    42  28  57 NW30G40   29.87R
WHITECLAY        N/A     35  29  80 W13         N/A  WCI  26
CRESCENT LAKE    N/A     44  21  40 NW16G30     N/A
LISCO            N/A     46  26  46 W25         N/A
BIG SPRINGS      N/A     50  25  37 NW13        N/A
$$

...OBSERVATIONS IN NORTH CENTRAL NEBRASKA...

CITY           SKY/WX    TMP DP  RH WIND       PRES   REMARKS
VALENTINE      CLOUDY    44  22  41 W14       29.76S
THEDFORD       CLOUDY    42  30  62 W16       29.80R
AINSWORTH      CLOUDY    41  24  50 W9        29.77S
O`NEILL        CLOUDY    44  22  42 S12       29.81S
ORD            CLOUDY    44  23  43 W18G35    29.83F
BROKEN BOW     CLOUDY    43  26  51 SW21G29   29.83F
BROWNLEE         N/A     45  22  39 W20         N/A
SPRINGVIEW       N/A     43  25  49 MISG        N/A
BREWSTER         N/A     44  19  37 W13         N/A
SARGENT          N/A     43  28  55 W13G22      N/A
COMSTOCK         N/A     45  25  45 W9          N/A
CHAMBERS         N/A     43  22  43 S10G22      N/A
EWING            N/A     44  25  46 CALM        N/A
$$

...OBSERVATIONS IN SOUTHWEST NEBRASKA AND FAR NORTHEAST COLORADO...

CITY           SKY/WX    TMP DP  RH WIND       PRES   REMARKS
WRAY           MOCLDY    52  14  22 W16G26    29.84F
HOLYOKE        FAIR      50  18  27 NW9       29.83R
IMPERIAL       CLOUDY    50  17  27 W13       29.82S
OGALLALA       CLOUDY    46  22  38 SW6       29.80S
NORTH PLATTE   CLOUDY    44  25  47 SW10      29.82F
MCCOOK         CLOUDY    49  20  31 W8        29.84F
LEXINGTON      CLOUDY    47  17  29 W9        29.85S
PAXTON           N/A     45  27  48 CALM        N/A
BRADY            N/A     43  24  47 CALM        N/A
GOTHENBURG       N/A     44  22  42 W5          N/A
CALLAWAY         N/A     41  28  58 SW13        N/A
$$

...NORTH PLATTE AREA...

CITY           SKY/WX    TMP DP  RH WIND       PRES   REMARKS
AIRPORT        CLOUDY    44  25  47 SW10      29.82F
DOWNTOWN         N/A     43  26  51 CALM        N/A
$$

...SOME WEATHER OBSERVATIONS FROM AROUND THE REGION...

CITY           SKY/WX    TMP DP  RH WIND       PRES   REMARKS
DENVER         PTSUNNY   48  16  27 W15G24    29.86R
LARAMIE        MOSUNNY   35  21  56 W44G52    29.86R WCI  19
CHEYENNE       MOSUNNY   42  21  43 W36G49    29.84R
SCOTTSBLUFF    LGT RAIN  37  33  85 NW21      29.87R WCI  26
RAPID CITY     CLOUDY    36  31  82 NW26G38   29.79R WCI  24
PIERRE         CLOUDY    36  27  69 S7        29.76R WCI  30
WINNER         CLOUDY    44  23  43 SW9       29.76F
SIOUX FALLS    CLOUDY    36  23  59 SE9       29.88F WCI  29
OMAHA          MOCLDY    42  24  49 SE14      29.98F
GRAND ISLAND   CLOUDY    44  23  43 S12       29.90S
KANSAS CITY    PTCLDY    40  18  41 S10       30.09F WCI  33
WICHITA        PTSUNNY   49  23  36 S13       30.06F
HAYS           CLOUDY    50  16  25 SW18      29.94F
LIBERAL        PTSUNNY   52  18  25 SW16      29.96F
GOODLAND       PTSUNNY   49   9  19 SW13      29.87F
$$



USA.gov is the U.S. government's official web portal to all federal, state and local government web resources and services.